Weather History for Arlington, WA

Change the Weather History Date:

Tuesday, January 22, 2013

  Actual Average Record
Temperature  
Mean Temperature -2 °C -  
Max Temperature 2 °C 8 °C 12 °C (2005)
Min Temperature -5 °C 0 °C -7 °C (2008)
Degree Days  
Heating Degree Days 36    
Moisture  
Dew Point -3 °C    
Average Humidity 91    
Maximum Humidity 100    
Minimum Humidity 86    
Precipitation  
Precipitation 0.00 mm - - ()
Sea Level Pressure  
Sea Level Pressure 1017 hPa    
Wind  
Wind Speed 0 km/h (North)    
Max Wind Speed 0 km/h    
Max Gust Speed -    
Visibility 7 kilometers    
Events      
Averages and records for this station are not official NWS values.
T = Trace of Precipitation, MM = Missing Value Source: NWS Daily Summary

Daily Weather History Graph

Daily Weather History Graph

Search for Another Location

Airport:

Trip Planner

Search our weather history database for the weather conditions in past years. The results will help you decide how hot, cold, wet, or windy it might be!

Date:

Astronomy

Jan. 22, 2013 Rise Set
Actual Time 7:47 AM PST 4:53 PM PST
Civil Twilight 7:13 AM PST 5:27 PM PST
Nautical Twilight 6:35 AM PST 6:05 PM PST
Astronomical Twilight 5:58 AM PST 6:42 PM PST
Moon 1:16 PM PST (1/22) 4:17 AM PST (1/22)
Length of Visible Light 10h 14m
Length of Day
9h 05m
Waxing Gibbous, 83% of the Moon is Illuminated
Jan 22
Waxing Gibbous
Jan 26
Full
Feb 3
Last Quarter
Feb 9
New
Feb 17
First Quarter

Hourly Weather History & Observations

Time (PST) Temp. Dew Point Humidity Pressure Visibility Wind Dir Wind Speed Gust Speed Precip Events Conditions
12:15 AM -2.0 °C -3.0 °C 93% 1021.6 hPa 0.4 km Calm Calm - N/A   Overcast
12:35 AM -3.0 °C -4.0 °C 93% 1021.2 hPa 2.4 km Calm Calm - N/A   Overcast
12:55 AM -3.0 °C -4.0 °C 93% 1021.2 hPa 8.0 km Calm Calm - N/A   Overcast
1:15 AM -3.0 °C -4.0 °C 93% 1021.2 hPa 0.8 km Calm Calm - N/A   Overcast
1:35 AM -3.0 °C -4.0 °C 93% 1021.2 hPa 0.8 km Calm Calm - N/A   Overcast
1:55 AM -3.0 °C -4.0 °C 93% 1021.2 hPa 0.4 km Calm Calm - N/A   Overcast
2:15 AM -3.0 °C -4.0 °C 93% 1021.2 hPa 0.4 km Calm Calm - N/A   Overcast
2:35 AM -3.0 °C -4.0 °C 93% 1021.2 hPa 0.4 km Calm Calm - N/A   Overcast
2:55 AM -3.0 °C -4.0 °C 93% 1020.9 hPa 0.4 km Calm Calm - N/A   Overcast
3:15 AM -3.0 °C -5.0 °C 86% 1020.9 hPa 0.8 km Calm Calm - N/A   Overcast
3:35 AM -4.0 °C -5.0 °C 93% 1020.9 hPa 0.4 km Calm Calm - N/A   Overcast
3:55 AM -4.0 °C -5.0 °C 93% 1020.9 hPa 0.4 km Calm Calm - N/A   Overcast
4:15 AM -4.0 °C -6.0 °C 86% 1021.2 hPa 0.8 km Calm Calm - N/A   Overcast
4:35 AM -4.0 °C -6.0 °C 86% 1020.5 hPa 0.8 km Calm Calm - N/A   Overcast
4:55 AM -4.0 °C -6.0 °C 86% 1019.9 hPa 0.4 km Calm Calm - N/A   Overcast
5:15 AM -4.0 °C -6.0 °C 86% 1019.9 hPa 1.2 km Calm Calm - N/A   Overcast
5:35 AM -5.0 °C -6.0 °C 93% 1019.9 hPa 0.8 km Calm Calm - N/A   Overcast
5:55 AM -4.0 °C -6.0 °C 86% 1019.5 hPa 0.8 km Calm Calm - N/A   Overcast
6:15 AM -4.0 °C -6.0 °C 86% 1019.9 hPa 0.4 km Calm Calm - N/A   Overcast
6:35 AM -5.0 °C -6.0 °C 93% 1019.5 hPa 0.4 km Calm Calm - N/A   Overcast
6:55 AM -5.0 °C -7.0 °C 86% 1019.2 hPa 0.4 km Calm Calm - N/A   Overcast
7:35 AM -5.0 °C -7.0 °C 86% 1019.2 hPa 0.4 km Calm Calm - N/A   Overcast
7:55 AM -5.0 °C -6.0 °C 93% 1019.5 hPa 0.4 km Calm Calm - N/A   Overcast
8:15 AM -4.0 °C -5.0 °C 93% 1019.5 hPa 0.4 km Calm Calm - N/A   Overcast
8:35 AM -4.0 °C -6.0 °C 86% 1019.5 hPa 0.4 km Calm Calm - N/A   Overcast
8:55 AM -4.0 °C -6.0 °C 86% 1019.5 hPa 0.4 km Calm Calm - N/A   Overcast
9:15 AM -4.0 °C -5.0 °C 93% 1019.2 hPa 1.6 km Calm Calm - N/A   Overcast
9:35 AM -4.0 °C -5.0 °C 93% 1019.2 hPa 1.2 km Calm Calm - N/A   Overcast
9:55 AM -3.0 °C -4.0 °C 93% 1019.2 hPa 14.5 km Calm Calm - N/A   Overcast
10:15 AM -3.0 °C -3.0 °C 100% 1019.2 hPa 16.1 km Calm Calm - N/A   Mostly Cloudy
10:35 AM -2.0 °C -3.0 °C 93% 1018.8 hPa 16.1 km Calm Calm - N/A   Partly Cloudy
10:55 AM -2.0 °C -3.0 °C 93% 1018.8 hPa 16.1 km Calm Calm - N/A   Clear
11:15 AM -2.0 °C -2.0 °C 100% 1018.5 hPa 16.1 km Calm Calm - N/A   Clear
11:35 AM -1.0 °C -2.0 °C 93% 1018.5 hPa 16.1 km Calm Calm - N/A   Clear
11:55 AM -1.0 °C -2.0 °C 93% 1018.5 hPa 16.1 km Calm Calm - N/A   Partly Cloudy
12:15 PM -1.0 °C -2.0 °C 93% 1018.5 hPa 16.1 km Calm Calm - N/A   Scattered Clouds
12:35 PM -1.0 °C -1.0 °C 100% 1018.2 hPa 16.1 km Calm Calm - N/A   Mostly Cloudy
12:55 PM 0.0 °C -1.0 °C 93% 1017.8 hPa 16.1 km Calm Calm - N/A   Partly Cloudy
1:15 PM 0.0 °C -1.0 °C 93% 1017.5 hPa 16.1 km Calm Calm - N/A   Scattered Clouds
1:35 PM 1.0 °C 0.0 °C 93% 1017.2 hPa 16.1 km Calm Calm - N/A   Clear
1:55 PM 1.0 °C 0.0 °C 93% 1016.8 hPa 16.1 km Calm Calm - N/A   Clear
2:15 PM 2.0 °C 1.0 °C 93% 1016.8 hPa 16.1 km Calm Calm - N/A   Clear
2:35 PM 2.0 °C 1.0 °C 93% 1016.5 hPa 16.1 km Calm Calm - N/A   Clear
2:55 PM 2.0 °C 1.0 °C 93% 1016.1 hPa 16.1 km Calm Calm - N/A   Clear
3:15 PM 2.0 °C 1.0 °C 93% 1015.8 hPa 16.1 km Calm Calm - N/A   Clear
3:35 PM 2.0 °C 1.0 °C 93% 1016.1 hPa 16.1 km Calm Calm - N/A   Clear
3:55 PM 2.0 °C 1.0 °C 93% 1015.1 hPa 16.1 km Calm Calm - N/A   Clear
4:15 PM 2.0 °C 1.0 °C 93% 1015.5 hPa 16.1 km Calm Calm - N/A   Clear
4:35 PM 2.0 °C 1.0 °C 93% 1015.5 hPa 14.5 km Calm Calm - N/A   Clear
4:55 PM 1.0 °C 0.0 °C 93% 1015.5 hPa 12.9 km Calm Calm - N/A   Clear
5:15 PM 1.0 °C -1.0 °C 87% 1015.1 hPa 11.3 km Calm Calm - N/A   Clear
5:35 PM 1.0 °C -1.0 °C 87% 1015.1 hPa 8.0 km Calm Calm - N/A   Clear
5:55 PM 0.0 °C -2.0 °C 87% 1015.1 hPa 4.8 km Calm Calm - N/A   Clear
6:15 PM 0.0 °C -1.0 °C 93% 1015.1 hPa 2.8 km Calm Calm - N/A   Scattered Clouds
6:35 PM 0.0 °C -1.0 °C 93% 1014.8 hPa 0.8 km Calm Calm - N/A   Mostly Cloudy
6:55 PM 1.0 °C -1.0 °C 87% 1014.8 hPa 2.4 km Calm Calm - N/A   Mostly Cloudy
7:15 PM 0.0 °C -1.0 °C 93% 1014.4 hPa 6.4 km Calm Calm - N/A   Clear
7:35 PM 0.0 °C -1.0 °C 93% 1014.1 hPa 6.4 km Calm Calm - N/A   Clear
7:55 PM 0.0 °C -1.0 °C 93% 1014.4 hPa 4.8 km Calm Calm - N/A   Clear
8:15 PM 0.0 °C -1.0 °C 93% 1014.4 hPa 4.8 km Calm Calm - N/A   Scattered Clouds
8:35 PM 0.0 °C -1.0 °C 93% 1014.4 hPa 4.0 km Calm Calm - N/A   Clear
8:55 PM 0.0 °C -1.0 °C 93% 1014.4 hPa 6.4 km Calm Calm - N/A   Clear
9:15 PM 1.0 °C -1.0 °C 87% 1014.1 hPa 6.4 km Calm Calm - N/A   Clear
9:35 PM 0.0 °C -1.0 °C 93% 1013.8 hPa 6.4 km Calm Calm - N/A   Clear
9:55 PM 0.0 °C -1.0 °C 93% 1013.4 hPa 6.4 km Calm Calm - N/A   Clear
10:15 PM 1.0 °C 0.0 °C 93% 1013.4 hPa 6.4 km Calm Calm - N/A   Clear
10:35 PM 1.0 °C -1.0 °C 87% 1013.1 hPa 8.0 km Calm Calm - N/A   Partly Cloudy
10:55 PM 1.0 °C -1.0 °C 87% 1013.1 hPa 8.0 km Calm Calm - N/A   Mostly Cloudy
11:15 PM 1.0 °C -1.0 °C 87% 1013.4 hPa 8.0 km Calm Calm - N/A   Overcast
11:35 PM 1.0 °C -1.0 °C 87% 1014.1 hPa 4.8 km Calm Calm - N/A   Overcast
11:55 PM 1.0 °C 0.0 °C 93% 1014.1 hPa 11.3 km Calm Calm - N/A   Overcast